Regional Weather Roundup
Issued by NWS Midland/Odessa, TX

Skip options and go directly to product.
Home | Oldest Version | Previous Version | Current Version | All | Text Only | Save Text | Print | Product List | Glossary Off

Skip product version selection by date and time.   

908
ASUS44 KMAF 231410
RWRMAF
MIDLAND AREA WEATHER ROUNDUP
NATIONAL WEATHER SERVICE MIDLAND TX
900 AM CDT WED APR 23 2014

...IN SOUTHWEST TEXAS AND SOUTHEAST NEW MEXICO...

CITY           SKY/WX    TMP DP  RH WIND       PRES   REMARKS
ALPINE         SUNNY     71  47  42 S14G23    29.99S
ANDREWS        FAIR      67  52  59 S14G20    29.87S
ARTESIA        CLOUDY    64  48  55 S15       29.84S
BIG SPRING     CLOUDY    74  59  60 SE18G28   29.89S
CARLSBAD       CLOUDY    66  48  52 S9        29.83S
DRYDEN           N/A     73  56  54 SE7       29.87R
FORT STOCKTON  SUNNY     69  52  54 S15       29.85R
GUAD PASS      PTSUNNY   62  43  49 SW13      29.97R
HOBBS          SUNNY     64  50  59 S20G25    29.87R
MARFA          SUNNY     64  48  55 S3        30.00R
MIDLAND AIRPK  CLOUDY    68  55  63 S12G17    29.88R
MIDLAND INTL   PTSUNNY   68  55  63 S14       29.87R
ODESSA           N/A    N/A N/A N/A MISG      29.87R
PECOS          SUNNY     67  54  62 CALM      29.84R
PRESIDIO       FAIR      78  42  27 SE7       29.88R
SEMINOLE       CLOUDY    65  50  58 SE14      29.88R
SNYDER         PTSUNNY   67  58  71 SE13G21   29.89S
WINK           MOSUNNY   70  53  54 SE20G25   29.83R
$$
...OTHER STATIONS IN TEXAS...

CITY           SKY/WX    TMP DP  RH WIND       PRES   REMARKS
ABILENE        MOSUNNY   70  59  68 S17G24    29.89F
AMARILLO       CLOUDY    64  47  53 S22G28    29.85R
AUSTIN         FOG       65  62  90 SE3       29.94R VSB 1/2
BROWNSVILLE    SUNNY     74  71  91 SE12      29.93R
CORPUS CHRISTI MOSUNNY   75  69  81 SE10      29.92S
DALLAS FTW     MOSUNNY   71  60  68 S10       29.92S
DEL RIO        PTSUNNY   73  65  75 SE12      29.87R
EL PASO        PTSUNNY   70  24  17 SW9       29.89R
HOUSTON INT    SUNNY     73  67  81 CALM      29.96S
LUBBOCK        CLOUDY    64  50  60 S18       29.86F
SAN ANGELO     SUNNY     71  60  68 S15G23    29.88R
SAN ANTONIO    MOSUNNY   71  65  81 SE6       29.94S
WACO           SUNNY     70  63  78 S3        29.93S
WICHITA FALLS  NOT AVBL
$$
...OTHER LOCATIONS IN NEW MEXICO...

CITY           SKY/WX    TMP DP  RH WIND       PRES   REMARKS
ALAMAGORDO     MOSUNNY   64  27  24 S10       29.90R
ALBUQUERQUE    MOSUNNY   61  26  26 SW7       29.89R
CANNON AFB     CLOUDY    62  47  58 S10       29.86R
CLOVIS         CLOUDY    61  46  59 S20G25    29.88R
HOLLOMAN AFB   MOSUNNY   70  27  20 SW10      29.88R
ROSWELL        CLOUDY    65  48  54 S15       29.83R
RUIDOSO        MOSUNNY   55  27  33 S10       30.00R
SANTA FE       MOSUNNY   54  28  36 N5        29.89R
TRUTH OR CONSE CLOUDY    61  29  29 NE3       29.89R
TUCUMCARI      PTSUNNY   67  45  45 S20       29.78R
$$

USA.gov is the U.S. government's official web portal to all federal, state and local government web resources and services.